Location: Newark
(54.4000°N, 32.4500°E)
Time: 21:15:39
(UTC+00:00)

N. Korean satellite - Visible Passes

Search period start: 17 January 2020 00:00
Search period end: 27 January 2020 00:00
Orbit: 454 x 508 km, 97.2° (Epoch: 17 January)

Date Brightness Start Highest point End Pass type
(mag) Time Alt. Az. Time Alt. Az. Time Alt. Az.
17 Jan 9.3 02:52:24 10° NE 02:54:56 19° E 02:57:29 10° SE visible
17 Jan 6.7 04:25:12 10° N 04:28:33 45° WNW 04:31:56 10° SW visible
17 Jan 8.0 15:07:07 10° S 15:10:23 40° W 15:13:39 10° NNW visible
18 Jan 10.1 02:28:22 10° ENE 02:29:11 11° E 02:29:59 10° E visible
18 Jan 6.4 03:59:36 10° NNE 04:03:06 85° WNW 04:06:38 10° SSW visible
18 Jan 6.6 14:41:24 10° S 14:44:49 79° WSW 14:48:16 10° NNW visible
19 Jan 7.4 03:34:09 10° NNE 03:37:34 50° E 03:41:02 10° S visible
19 Jan 7.9 05:08:12 10° NNW 05:10:42 18° WNW 05:13:12 10° WSW visible
19 Jan 9.7 15:50:58 10° SW 15:53:04 15° W 15:55:10 10° NW visible
20 Jan 8.7 03:08:54 10° NE 03:11:57 27° E 03:15:02 10° SSE visible
20 Jan 7.3 04:42:15 10° N 04:45:22 30° WNW 04:48:31 10° SW visible
20 Jan 8.9 15:24:23 10° SSW 15:27:21 27° W 15:30:20 10° NW visible
21 Jan 9.6 02:44:01 10° NE 02:46:15 16° E 02:48:29 10° SE visible
21 Jan 6.5 04:16:31 10° N 04:19:58 55° WNW 04:23:28 10° SSW visible
21 Jan 7.5 14:58:23 10° S 15:01:44 50° W 15:05:06 10° NNW visible
22 Jan 6.6 03:50:58 10° NNE 03:54:29 78° ESE 03:58:04 10° S visible
22 Jan 10.2 16:09:34 10° W 16:10:08 10° W 16:10:42 10° WNW visible
23 Jan 7.9 03:25:34 10° NNE 03:28:56 41° E 03:32:20 10° S visible
23 Jan 7.7 04:59:22 10° NNW 05:02:09 22° WNW 05:04:56 10° WSW visible
23 Jan 9.6 15:41:54 10° SW 15:44:21 18° W 15:46:50 10° NW visible
24 Jan 9.0 03:00:24 10° NE 03:03:17 23° E 03:06:12 10° SSE visible
24 Jan 7.0 04:33:30 10° N 04:36:48 37° WNW 04:40:07 10° SW visible
24 Jan 8.5 15:15:33 10° SSW 15:18:40 32° W 15:21:49 10° NNW visible
25 Jan 9.9 02:35:44 10° ENE 02:37:34 13° E 02:39:23 10° ESE visible
25 Jan 6.4 04:07:49 10° N 04:11:22 69° WNW 04:14:56 10° SSW visible
25 Jan 7.1 14:49:40 10° S 14:53:03 63° WSW 14:56:30 10° NNW visible
26 Jan 7.0 03:42:19 10° NNE 03:45:51 63° ESE 03:49:26 10° S visible
26 Jan 9.9 15:59:49 10° WSW 16:01:23 13° W 16:02:59 10° WNW visible
